Theta_e
323 323 322 323 319 316 320 324 320 324 325 325 326 323 324 329 329 324 329 328 324 325 322 317 326 330 331 330 332 333 328 326 315 317 314 313 315 315 315 316 318 321 330 328 318 318 316 315 314
324 325 322 323 319 318 318 317 322 322 328 330 330 330 330 330 332 328 327 323 321 322 313 319 328 332 331 329 332 331 328 321 313 323 325 318 320 321 316 315 314 314 327 323 316 316 316 315 315
327 326 321 317 316 321 320 321 320 326 329 326 332 331 330 330 330 325 322 319 317 318 312 318 327 329 331 328 331 331 324 321 316 331 325 323 317 316 314 314 314 315 322 319 316 316 315 316 315
330 323 320 318 322 321 319 323 324 326 326 326 330 329 330 328 328 322 318 315 315 311 314 315 325 328 330 328 330 328 322 321 319 332 330 323 316 314 313 313 313 316 320 316 316 316 316 315 315
328 322 318 320 321 320 319 323 324 324 326 327 327 329 330 329 328 322 317 315 312 311 313 313 319 328 327 328 326 323 318 317 317 326 321 316 314 314 313 313 313 314 315 315 315 315 316 315 315
323 320 320 321 320 320 317 325 325 324 326 327 329 329 328 329 328 325 321 316 311 313 313 312 315 324 326 326 323 317 313 313 311 317 313 314 314 313 313 313 313 314 314 315 315 316 317 316 316
317 317 321 321 321 322 318 323 325 324 325 327 330 328 329 328 327 324 322 316 312 314 313 311 311 317 322 320 317 315 312 311 310 313 313 314 314 313 313 313 313 314 314 314 315 316 316 317 316
325 317 321 321 321 322 321 320 323 325 324 326 329 327 327 323 329 328 323 320 312 314 314 312 311 312 315 315 314 312 311 310 312 313 313 314 314 313 313 313 313 313 314 314 314 315 316 316 316
326 319 323 323 323 322 320 317 319 323 326 328 329 328 327 324 329 331 325 323 316 313 315 314 313 312 313 313 313 311 311 311 313 313 313 313 314 314 314 314 314 313 314 314 315 315 315 316 316
324 324 322 319 320 319 319 317 318 321 324 327 327 328 328 326 326 330 328 322 320 315 314 315 314 314 313 313 313 313 312 313 313 314 313 313 314 314 314 314 314 314 314 314 314 315 315 316 316
323 327 322 325 324 322 320 321 316 319 321 325 328 327 327 327 328 328 329 323 320 318 315 315 315 315 315 315 314 314 314 313 313 313 314 314 314 314 314 314 314 314 314 314 314 315 315 316 316
323 325 325 325 325 324 322 320 315 316 318 322 325 327 326 327 327 325 326 325 322 320 317 315 316 315 316 317 317 316 315 314 313 313 314 314 314 314 314 314 314 314 314 314 314 315 315 316 316
322 324 324 325 324 325 322 321 318 318 318 318 321 325 326 326 326 326 326 327 324 323 320 316 315 316 316 316 317 316 315 315 314 314 314 315 315 315 314 314 314 314 314 314 314 314 315 315 316
323 323 323 324 324 324 322 323 318 319 318 316 320 323 325 326 326 327 327 325 325 324 324 320 315 315 316 316 316 317 316 315 315 315 315 315 317 316 316 315 315 315 315 315 315 315 315 315 315
323 324 323 324 324 325 322 324 314 322 318 315 317 320 324 325 327 326 325 323 321 322 324 324 320 316 316 316 316 316 316 316 316 316 316 316 316 317 317 316 316 315 315 315 315 315 315 315 316
324 323 326 323 325 325 324 327 320 321 320 317 315 319 322 325 325 326 326 325 323 323 324 325 325 320 317 316 316 316 316 317 316 316 317 317 317 318 318 317 317 317 317 316 316 316 316 317 317
323 326 323 324 325 325 322 324 321 323 316 316 317 316 319 322 326 325 326 326 324 323 323 324 326 325 322 319 317 317 317 317 317 317 317 317 318 318 319 318 318 319 319 319 319 319 319 319 318
326 327 322 324 325 325 323 321 320 325 324 317 317 318 315 318 320 322 324 325 325 324 324 324 325 326 326 324 322 321 320 320 319 319 318 318 319 320 319 319 319 319 320 320 320 320 320 320 320
321 323 324 323 323 324 324 324 324 324 322 319 316 317 318 318 318 319 322 324 326 325 326 325 325 325 326 327 326 324 323 322 321 320 320 319 320 320 321 320 320 320 320 321 321 321 321 321 321
324 323 323 322 323 323 323 324 323 323 323 323 323 320 317 318 320 320 317 319 322 324 324 324 324 325 325 325 325 325 324 323 323 322 321 320 321 321 322 321 321 321 321 321 321 321 321 321 321
322 324 323 323 322 323 325 326 324 323 323 323 323 323 323 321 323 324 322 320 317 319 320 323 323 323 324 326 327 327 327 326 325 324 323 322 322 322 322 322 322 322 322 322 321 321 321 321 321
322 320 322 323 324 327 324 328 323 322 323 321 323 322 321 322 324 325 323 323 324 321 318 319 321 322 323 325 327 327 325 324 321 322 322 322 323 323 322 322 323 322 322 323 323 322 322 321 321
323 322 323 323 325 323 323 325 323 321 322 321 321 322 321 323 324 325 326 325 326 324 321 319 319 320 322 324 324 326 327 325 325 324 321 321 322 323 323 322 322 322 323 323 323 323 323 322 322
320 321 322 322 324 325 323 324 323 324 320 319 320 322 323 323 325 326 328 327 327 326 325 320 318 318 318 321 323 324 323 325 325 324 323 322 322 322 323 322 322 322 322 323 324 324 323 323 322
321 322 323 323 323 325 318 322 322 321 314 314 316 318 320 321 322 322 322 322 324 326 326 325 319 317 317 319 321 323 324 325 325 324 323 322 321 320 319 322 322 321 322 323 323 323 323 322 323
321 321 324 324 323 322 316 324 322 318 318 320 319 319 320 322 323 320 319 319 320 322 325 324 325 324 318 318 318 321 323 325 326 326 325 323 321 319 318 319 321 321 322 322 322 323 323 322 323
321 323 319 318 309 316 316 312 313 312 312 311 312 314 319 322 320 322 321 318 319 319 320 323 324 325 322 320 318 319 322 324 324 324 325 324 322 321 319 318 319 322 322 322 322 322 322 323 323
319 317 320 317 322 319 316 314 318 314 315 313 315 313 316 317 318 317 320 318 317 319 319 320 320 322 323 322 321 319 320 322 323 323 324 324 323 322 320 318 319 321 322 322 323 323 323 324 324
318 320 320 319 318 318 317 316 309 314 314 312 310 312 313 313 314 315 316 320 319 316 316 319 320 320 320 320 320 320 320 323 323 323 324 324 324 324 323 320 320 322 324 324 325 326 327 326 325
318 318 319 321 318 313 311 317 311 307 307 307 307 309 310 309 311 314 314 316 318 317 315 315 317 318 319 319 319 319 320 322 324 324 324 324 324 324 324 323 323 325 326 327 328 327 326 325 323
Wind_Speed
13 13 13 6 4 5 2 1 1 3 2 2 9 4 7 4 4 3 7 14 14 13 13 15 16 14 12 10 9 7 7 5 7 8 10 11 12 13 13 14 15 17 17 15 16 18 19 18 19
12 13 7 3 4 3 4 3 4 4 8 16 11 8 3 2 4 3 17 15 14 12 13 17 17 14 13 12 10 6 6 6 8 9 11 12 13 12 12 13 13 16 15 14 16 17 17 18 18
12 11 4 4 3 1 3 3 4 5 16 3 4 2 2 2 6 10 12 15 15 14 15 18 19 17 14 13 11 8 5 6 8 11 7 10 11 10 11 12 12 15 14 13 15 15 16 15 15
10 4 4 3 2 4 3 2 4 10 5 5 6 3 2 5 4 15 16 15 15 15 15 18 20 18 15 14 13 9 6 6 9 12 9 8 9 9 9 11 12 14 13 12 13 14 14 13 13
7 3 3 2 2 3 3 3 10 3 2 5 5 4 2 5 9 17 17 16 15 16 16 17 19 18 17 15 13 10 7 8 9 12 10 8 8 8 9 10 11 12 12 11 12 12 12 13 13
5 4 3 2 3 4 4 5 5 3 4 5 3 6 4 9 12 15 16 15 15 14 16 17 19 19 17 15 12 10 8 9 10 11 10 8 7 8 9 9 10 11 11 10 10 10 11 10 10
5 4 2 2 4 4 2 6 4 6 5 5 5 6 4 14 14 14 15 15 15 16 16 16 18 20 18 15 12 10 9 10 10 9 9 8 7 8 8 9 9 10 10 9 8 8 8 8 8
6 2 4 2 2 5 4 2 4 9 7 5 10 5 5 19 18 17 18 16 17 18 17 16 17 19 18 16 14 12 11 10 10 9 9 9 7 7 9 9 9 9 9 8 7 6 6 5 5
8 3 3 4 0 5 13 7 5 4 6 10 12 8 6 16 22 22 23 22 22 22 20 19 18 18 18 17 15 13 12 12 11 11 10 9 9 8 9 9 9 9 8 7 6 5 4 3 3
8 4 5 2 6 5 17 9 14 4 6 10 12 16 12 13 25 27 30 29 28 27 25 22 20 18 18 18 17 15 15 14 12 11 11 10 9 9 9 8 9 8 8 8 7 6 3 1 1
5 7 10 10 18 14 9 16 11 6 4 15 21 24 20 17 27 29 30 31 29 27 27 25 22 20 19 19 18 17 16 15 14 12 11 11 11 10 10 9 8 8 8 7 6 6 5 4 3
2 8 17 10 17 16 11 14 11 14 22 16 26 25 23 24 28 30 31 32 31 29 27 27 25 23 22 20 19 18 17 16 15 13 13 12 11 11 10 9 8 8 8 7 7 6 6 6 5
1 5 17 22 17 20 19 15 11 23 27 25 21 23 27 27 29 29 29 30 31 31 30 29 28 26 24 23 22 20 19 17 15 14 13 13 12 11 10 10 9 9 9 9 8 7 7 7 7
5 9 9 12 18 12 9 17 7 16 23 19 22 22 25 29 30 31 33 33 33 32 32 30 31 28 27 26 25 23 21 19 18 16 15 14 12 12 11 11 10 10 10 10 10 9 9 9 9
2 4 4 10 7 6 9 10 6 26 23 27 24 23 26 29 32 35 31 33 31 32 33 33 32 31 30 29 27 26 23 22 21 19 17 16 15 14 13 11 12 10 11 12 11 10 10 10 9
1 0 5 5 13 8 9 14 5 18 20 25 26 26 28 30 33 35 33 35 33 32 34 34 33 34 32 31 30 29 27 25 24 22 21 19 18 17 15 14 13 12 13 14 12 12 11 11 10
4 7 6 5 15 4 7 2 9 18 16 24 29 31 30 31 34 35 36 36 34 33 33 34 36 36 34 33 32 31 29 29 27 25 24 23 21 20 19 18 15 15 16 16 15 14 13 12 11
9 6 4 5 4 5 6 9 12 26 27 26 29 29 32 33 36 35 36 37 36 35 35 35 36 37 35 34 34 33 33 32 30 29 28 26 25 24 23 21 19 19 20 19 18 17 16 14 13
12 8 12 3 6 3 11 14 17 20 20 25 28 33 35 34 41 37 38 38 40 39 40 39 38 39 37 38 39 38 39 36 34 33 31 30 29 27 26 24 23 23 24 22 20 19 19 17 15
15 6 7 2 4 5 10 16 16 17 18 28 30 29 37 43 38 41 40 40 42 41 41 42 42 41 40 40 40 40 39 39 37 36 34 33 33 31 29 27 26 25 26 25 24 24 22 21 19
21 20 9 7 1 5 9 20 13 15 28 34 36 37 42 43 47 45 37 41 42 43 45 46 44 43 43 43 41 41 41 41 41 42 40 38 36 35 33 30 29 28 28 28 27 26 26 25 22
20 14 10 9 1 9 3 13 8 7 15 17 33 36 41 46 50 49 45 44 43 48 46 46 45 45 45 45 46 47 46 46 44 44 43 41 39 37 36 35 33 31 30 31 30 28 28 27 27
8 5 12 10 8 1 8 7 4 6 12 12 21 33 38 50 50 51 46 48 48 46 46 48 47 46 46 45 47 49 47 46 44 42 40 41 40 39 39 39 37 36 34 32 32 30 30 29 30
1 1 3 3 4 9 15 8 14 11 14 8 17 26 35 40 45 49 50 52 53 50 48 45 48 47 47 46 44 48 46 47 46 44 41 39 37 38 39 40 40 39 37 36 34 32 32 31 31
15 6 3 3 5 12 9 11 22 15 6 9 11 23 26 29 34 38 39 43 45 49 49 48 45 47 46 47 45 45 45 46 45 42 39 37 37 39 38 37 39 40 38 37 36 35 36 34 34
17 14 4 5 7 4 2 12 6 11 19 27 31 31 28 29 30 25 24 34 35 43 49 50 49 48 46 46 47 46 44 44 43 42 38 37 37 36 34 35 36 35 36 36 36 38 37 38 37
5 13 5 4 2 0 4 9 8 12 11 15 26 25 36 35 31 31 29 25 30 33 39 48 47 46 46 44 43 46 45 43 42 40 38 37 36 35 34 33 33 32 32 32 33 36 37 38 38
7 9 4 3 3 4 7 6 12 12 12 10 15 20 23 28 31 28 30 24 19 26 29 34 44 46 43 43 42 43 44 43 40 39 38 37 35 33 33 33 32 30 29 30 32 33 34 36 36
6 5 5 3 3 4 7 8 7 14 14 9 8 19 16 23 22 28 28 31 26 19 25 29 34 42 44 43 42 40 42 43 41 40 37 35 34 34 33 31 29 28 29 30 31 32 31 31 32
17 14 13 6 9 4 3 21 2 9 7 7 18 25 19 19 20 17 19 22 29 26 21 24 30 34 37 37 38 39 39 41 41 39 37 34 33 32 32 31 30 30 29 29 30 29 30 32 33
Wind_Direction
329 338 338 351 43 64 328 308 112 127 168 188 147 164 176 134 160 206 164 156 167 176 162 158 164 163 159 150 142 136 127 113 98 103 112 112 106 100 97 94 100 101 102 96 96 93 87 84 81
333 343 333 54 74 48 281 267 189 192 131 117 110 110 133 155 175 180 156 160 163 166 167 163 166 166 165 161 154 156 131 112 116 117 113 105 105 102 100 102 105 108 110 101 98 90 86 83 84
338 339 334 86 100 165 247 240 172 136 140 118 120 141 175 171 176 166 168 163 162 167 170 168 168 173 174 169 167 167 155 128 119 120 115 113 112 106 108 110 110 111 115 105 99 91 87 83 84
353 333 41 80 148 251 215 290 155 137 219 183 159 106 179 186 183 171 170 168 164 167 173 173 175 176 180 178 180 186 177 151 129 135 145 123 121 117 112 114 118 121 119 111 104 94 90 87 90
6 10 36 42 253 271 275 180 164 163 157 163 162 206 231 193 175 173 172 169 171 169 173 178 180 179 183 188 192 194 188 180 159 149 154 135 128 129 119 119 123 126 125 121 109 103 96 91 89
32 32 40 302 272 293 303 171 171 215 171 176 173 159 187 176 169 173 176 173 174 179 177 182 185 187 187 190 195 192 193 188 166 162 161 150 137 134 125 126 127 131 134 130 118 110 99 94 87
72 21 232 287 293 334 290 199 212 195 200 225 183 148 220 186 170 179 179 180 182 185 191 188 192 193 195 197 200 200 197 185 170 171 170 162 151 142 139 133 136 139 141 138 129 118 107 98 89
89 44 324 268 291 281 4 268 294 211 222 230 187 213 229 190 180 182 184 189 191 194 198 196 194 195 199 200 202 202 194 188 176 175 175 173 163 151 153 147 145 147 149 151 146 135 119 106 96
98 59 322 303 260 281 5 356 318 276 230 192 201 239 242 195 189 187 190 193 197 200 202 202 199 198 201 202 202 198 195 190 185 184 183 180 173 167 161 158 152 155 161 160 162 156 138 123 102
129 146 206 308 340 320 315 323 319 285 245 230 221 226 235 206 199 197 199 199 201 201 202 205 203 202 202 203 202 198 197 195 193 192 190 189 187 180 173 169 168 169 171 176 176 177 185 183 151
210 175 182 247 266 291 300 315 330 273 250 232 229 226 225 212 207 209 212 211 211 205 204 207 206 206 207 206 204 201 199 199 199 198 198 198 200 195 187 186 186 184 186 190 190 194 209 233 232
227 224 185 218 244 265 280 313 304 263 263 272 256 244 227 215 213 218 221 219 215 214 212 210 210 210 212 211 212 209 205 205 207 205 206 207 208 206 201 200 198 201 202 209 213 220 231 243 254
281 235 222 227 223 246 265 269 272 287 296 279 274 241 231 227 227 226 229 226 222 219 218 216 215 214 215 216 217 217 215 216 215 215 213 210 209 210 211 211 213 214 217 222 227 234 242 250 258
251 246 266 227 222 206 232 262 309 275 285 293 250 241 234 233 234 228 227 228 226 224 223 222 220 220 220 221 223 221 221 221 221 221 222 219 215 216 220 224 221 224 227 231 236 239 243 249 257
265 290 258 240 256 226 195 254 214 262 288 276 264 248 237 237 230 232 239 234 231 228 227 226 225 225 225 226 228 227 225 227 226 227 225 225 223 224 224 228 229 229 234 238 241 247 251 256 262
211 93 247 219 189 234 172 252 256 245 278 282 264 250 242 238 239 235 238 239 238 232 231 229 229 229 230 229 230 231 230 230 232 231 232 230 228 229 229 230 231 230 236 242 245 250 253 257 265
211 235 226 313 194 143 204 231 221 253 275 270 268 259 250 245 239 239 237 240 241 239 235 232 231 231 232 232 233 234 234 234 235 234 235 235 235 235 235 235 235 236 240 245 247 250 254 257 263
207 226 226 227 219 228 244 255 255 250 259 269 272 273 264 252 247 244 242 241 243 241 239 237 234 235 233 234 235 235 236 235 235 235 236 236 238 238 240 240 239 239 243 245 248 251 254 255 254
265 214 232 181 207 175 247 250 257 249 248 252 259 263 262 261 255 252 246 243 244 243 241 239 236 234 233 233 233 235 236 235 235 236 236 236 238 239 240 241 241 242 246 250 252 252 253 252 250
262 248 233 286 185 208 267 262 250 249 246 239 250 253 260 260 262 253 250 249 245 245 245 242 240 237 236 236 237 237 239 239 240 241 240 239 238 239 240 243 244 245 249 250 250 251 252 251 244
234 251 247 249 305 235 289 280 245 252 246 245 248 247 252 253 258 258 253 250 249 246 243 243 243 240 239 239 238 239 241 243 242 240 240 239 240 242 243 244 246 245 248 251 253 253 253 254 249
240 226 249 246 180 271 152 286 250 265 242 222 239 236 238 244 250 255 252 251 250 248 247 245 245 243 242 239 240 239 240 240 241 242 242 242 241 243 245 247 248 248 248 251 253 253 253 253 250
227 192 206 202 201 300 245 275 265 206 256 241 242 238 233 242 243 249 251 247 248 251 249 245 244 244 244 242 241 242 242 246 249 250 249 248 246 246 248 247 249 250 250 251 252 251 251 252 252
177 229 162 194 201 245 240 227 264 237 240 235 241 239 235 237 242 247 251 250 252 249 249 246 243 243 244 243 242 242 244 245 246 248 250 251 250 249 248 248 249 250 252 251 253 254 253 252 252
193 177 228 177 193 236 184 208 245 289 266 234 236 250 248 252 252 250 251 253 249 243 243 244 243 243 243 242 241 242 244 244 247 250 251 252 252 249 247 246 246 249 250 252 253 254 253 252 252
213 213 219 229 206 258 125 234 237 237 267 255 259 257 256 256 257 252 256 253 252 244 242 241 240 242 242 243 241 240 244 246 247 249 251 252 253 254 253 250 250 252 253 255 256 257 258 255 253
163 212 184 141 28 188 232 284 277 252 260 262 262 257 256 258 257 251 250 257 250 246 243 240 238 239 242 242 241 240 241 243 246 248 250 252 253 254 255 254 254 253 253 256 258 258 259 259 257
215 143 169 180 218 248 243 251 245 309 290 247 252 256 261 273 268 265 244 246 253 246 243 238 237 238 240 242 243 243 242 243 245 248 250 252 254 255 255 255 254 253 254 255 255 257 258 259 259
156 198 209 146 200 224 277 263 209 224 256 279 287 281 291 285 281 271 261 239 245 251 240 235 232 234 236 239 241 243 242 243 245 248 252 254 255 257 258 259 256 254 253 255 257 260 263 265 265
217 213 197 218 222 260 286 263 187 231 275 318 294 299 315 298 289 284 256 245 240 237 241 238 233 234 236 241 243 243 244 245 247 249 251 254 258 259 260 259 257 255 254 255 258 262 266 264 266